GW6455 Weather Reports


Display with metric or nautical units.
time (UTC)temp
F
wind
direction
speed
MPH
gust
MPH
rain 1hr
in
rain 24hr
in
rain mn
in
humidity
%
barometer
mb
20260504035503 42 293 0.0 0.0 0.00 0.00 0.00 56 1018.6
20260504034959 44 292 0.0 0.0 0.00 0.00 0.00 53 1018.7
20260504034457 45 299 1.0 1.0 0.00 0.00 0.00 51 1018.6
20260504033954 46 284 0.0 0.0 0.00 0.00 0.00 49 1018.7
20260504033451 47 289 0.0 1.0 0.00 0.00 0.00 47 1018.6
20260504032948 48 322 1.0 1.0 0.00 0.00 0.00 46 1018.6
20260504032445 48 40 2.0 2.0 0.00 0.00 0.00 45 1018.6
20260504031942 49 276 0.0 0.0 0.00 0.00 0.00 45 1018.6
20260504031439 50 288 0.0 0.0 0.00 0.00 0.00 44 1018.5
20260504030936 50 301 1.0 1.0 0.00 0.00 0.00 43 1018.7
20260504030433 51 295 1.0 1.0 0.00 0.00 0.00 42 1018.5
20260504025928 51 355 2.0 2.0 0.00 0.00 0.00 42 1018.5
20260504025425 51 285 0.0 0.0 0.00 0.00 0.00 42 1018.4
20260504024922 51 84 2.0 3.0 0.00 0.00 0.00 41 1018.2
20260504024420 52 298 1.0 2.0 0.00 0.00 0.00 41 1018.3
20260504023916 52 56 2.0 3.0 0.00 0.00 0.00 41 1018.3
20260504023413 52 54 1.0 2.0 0.00 0.00 0.00 40 1018.3
20260504022908 52 317 1.0 1.0 0.00 0.00 0.00 40 1018.3
20260504022405 53 295 2.0 3.0 0.00 0.00 0.00 40 1018.3
20260504021902 53 133 2.0 2.0 0.00 0.00 0.00 39 1018.3
20260504021359 54 96 3.0 3.0 0.00 0.00 0.00 37 1018.1
20260504020856 54 270 1.0 1.0 0.00 0.00 0.00 37 1018.3
20260504020353 54 345 3.0 4.0 0.00 0.00 0.00 37 1018.5
20260504015849 54 276 0.0 0.0 0.00 0.00 0.00 37 1018.3
20260504015345 54 314 1.0 2.0 0.00 0.00 0.00 37 1018.4
20260504014841 55 312 3.0 3.0 0.00 0.00 0.00 37 1018.2
20260504014337 56 219 1.0 1.0 0.00 0.00 0.00 37 1018.2
20260504013835 55 221 1.0 2.0 0.00 0.00 0.00 36 1018.3
20260504013333 54 359 3.0 3.0 0.00 0.00 0.00 37 1018.5
20260504012829 53 322 1.0 1.0 0.00 0.00 0.00 39 1018.2
20260504012327 52 283 0.0 0.0 0.00 0.00 0.00 38 1018.4
20260504011825 52 272 0.0 0.0 0.00 0.00 0.00 39 1018.4
20260504011321 53 293 1.0 2.0 0.00 0.00 0.00 38 1018.4
20260504010817 53 258 2.0 3.0 0.00 0.00 0.00 39 1018.5
20260504010312 54 295 1.0 1.0 0.00 0.00 0.00 38 1018.4
20260504005809 54 282 2.0 2.0 0.00 0.00 0.00 38 1018.6
20260504005306 55 312 1.0 1.0 0.00 0.00 0.00 37 1018.2
20260504004804 56 284 2.0 3.0 0.00 0.00 0.00 36 1018.2
20260504004301 57 267 2.0 3.0 0.00 0.00 0.00 35 1018.4
20260504003757 57 244 2.0 3.0 0.00 0.00 0.00 35 1018.2
20260504003255 55 0 5.0 7.0 0.00 0.00 0.00 35 1018.3
20260504002751 54 222 2.0 3.0 0.00 0.00 0.00 37 1018.4
20260504002248 54 297 1.0 1.0 0.00 0.00 0.00 39 1018.3
20260504001746 55 214 1.0 2.0 0.00 0.00 0.00 37 1018.1
20260504001243 56 48 4.0 6.0 0.00 0.00 0.00 37 1018.1
20260504000739 57 140 3.0 3.0 0.00 0.00 0.00 36 1018.5
20260504000236 57 32 3.0 3.0 0.00 0.00 0.00 35 1018.3
20260503235735 56 336 3.0 3.0 0.00 0.00 0.00 35 1018.1
20260503235231 55 324 4.0 4.0 0.00 0.00 0.00 37 1018.6
20260503234729 57 66 1.0 2.0 0.00 0.00 0.00 36 1018.4
20260503234227 57 318 5.0 7.0 0.00 0.00 0.00 37 1018.3
20260503233724 58 267 4.0 7.0 0.00 0.00 0.00 34 1018.3
20260503233219 57 265 2.0 2.0 0.00 0.00 0.00 37 1018.1
20260503232716 56 217 2.0 3.0 0.00 0.00 0.00 37 1018.1
20260503232213 58 287 2.0 3.0 0.00 0.00 0.00 36 1018.2
20260503231712 57 280 4.0 6.0 0.00 0.00 0.00 37 1018.2
20260503231208 56 239 4.0 10.0 0.00 0.00 0.00 38 1018.0
20260503230704 57 247 6.0 7.0 0.00 0.00 0.00 38 1018.2
20260503230202 57 295 3.0 3.0 0.00 0.00 0.00 38 1018.1
20260503225659 57 21 7.0 10.0 0.00 0.00 0.00 37 1018.2
20260503225159 55 321 2.0 2.0 0.00 0.00 0.00 38 1018.2
20260503224657 56 326 2.0 3.0 0.00 0.00 0.00 38 1018.2
20260503224154 55 291 3.0 7.0 0.00 0.00 0.00 39 1018.2
20260503223652 56 260 9.0 10.0 0.00 0.00 0.00 39 1018.2
20260503223149 54 230 3.0 3.0 0.00 0.00 0.00 41 1018.1
20260503222646 53 102 1.0 2.0 0.00 0.00 0.00 42 1018.3
20260503222143 53 281 4.0 10.0 0.00 0.00 0.00 42 1018.5
20260503221642 54 238 4.0 6.0 0.00 0.00 0.00 41 1018.3
20260503221139 54 283 6.0 9.0 0.00 0.00 0.00 40 1018.2
20260503220635 56 262 9.0 16.0 0.00 0.00 0.00 40 1018.2
20260503220132 55 244 10.0 14.0 0.00 0.00 0.00 39 1018.0
20260503215629 53 359 7.0 9.0 0.00 0.00 0.00 41 1018.1
20260503215126 53 250 6.0 8.0 0.00 0.00 0.00 41 1018.0
20260503214625 54 264 6.0 7.0 0.00 0.00 0.00 41 1018.0
20260503214120 55 239 2.0 6.0 0.00 0.00 0.00 42 1017.7
20260503213620 55 281 6.0 8.0 0.00 0.00 0.00 41 1017.7
20260503213116 55 213 5.0 8.0 0.00 0.00 0.00 42 1017.7
20260503212613 53 248 8.0 14.0 0.00 0.00 0.00 43 1017.8
20260503212110 53 336 3.0 6.0 0.00 0.00 0.00 42 1017.7
20260503211608 53 280 5.0 8.0 0.00 0.00 0.00 44 1017.7
20260503211103 54 272 5.0 6.0 0.00 0.00 0.00 44 1017.6
20260503210600 54 298 2.0 3.0 0.00 0.00 0.00 43 1017.6
20260503210056 53 249 4.0 4.0 0.00 0.00 0.00 44 1017.5
20260503205552 54 250 2.0 3.0 0.00 0.00 0.00 44 1017.5
20260503205049 54 321 8.0 11.0 0.00 0.00 0.00 43 1017.6
20260503204546 53 220 3.0 4.0 0.00 0.00 0.00 46 1017.6
20260503204043 54 281 7.0 9.0 0.00 0.00 0.00 45 1017.4
20260503203540 52 244 6.0 8.0 0.00 0.00 0.00 46 1017.4
20260503203037 54 274 7.0 8.0 0.00 0.00 0.00 45 1017.3
20260503202535 52 276 1.0 2.0 0.00 0.00 0.00 47 1017.6
20260503202033 53 299 6.0 8.0 0.00 0.00 0.00 47 1017.4
20260503201531 53 259 7.0 9.0 0.00 0.00 0.00 46 1017.4
20260503201028 55 268 12.0 14.0 0.00 0.00 0.00 45 1017.2
20260503200524 54 289 4.0 6.0 0.00 0.00 0.00 44 1017.2
20260503200021 55 265 3.0 6.0 0.00 0.00 0.00 44 1017.2
20260503195518 53 266 10.0 16.0 0.00 0.00 0.00 45 1017.0
20260503195015 54 236 8.0 9.0 0.00 0.00 0.00 45 1017.3
20260503194512 53 113 2.0 3.0 0.00 0.00 0.00 46 1017.2
20260503194011 53 259 6.0 8.0 0.00 0.00 0.00 48 1017.1
20260503193508 53 289 4.0 6.0 0.00 0.00 0.00 46 1017.2
20260503193004 54 285 3.0 4.0 0.00 0.00 0.00 45 1016.9
20260503192500 53 260 2.0 3.0 0.00 0.00 0.00 45 1017.0
20260503191955 53 281 15.0 17.0 0.00 0.00 0.00 47 1016.9
20260503191453 53 263 7.0 9.0 0.00 0.00 0.00 47 1016.9
20260503190949 53 253 9.0 14.0 0.00 0.00 0.00 45 1016.9
20260503190447 53 278 2.0 2.0 0.00 0.00 0.00 46 1016.9
20260503185944 54 96 9.0 15.0 0.00 0.00 0.00 46 1017.0
20260503185440 53 297 6.0 8.0 0.00 0.00 0.00 47 1017.0
20260503184939 54 352 2.0 6.0 0.00 0.00 0.00 46 1016.9
20260503184436 54 241 9.0 10.0 0.00 0.00 0.00 46 1016.7
20260503183933 53 13 2.0 3.0 0.00 0.00 0.00 46 1016.9
20260503183429 53 248 7.0 9.0 0.00 0.00 0.00 47 1016.9
20260503182926 53 251 2.0 3.0 0.00 0.00 0.00 48 1016.7
20260503182425 54 243 15.0 22.0 0.00 0.00 0.00 47 1016.6
20260503181922 53 316 0.0 1.0 0.00 0.00 0.00 46 1016.6
20260503181419 52 225 9.0 11.0 0.00 0.00 0.00 48 1016.7
20260503180915 53 262 4.0 4.0 0.00 0.00 0.00 47 1016.6
20260503180414 53 106 3.0 4.0 0.00 0.00 0.00 50 1016.7
20260503175910 51 244 4.0 6.0 0.00 0.00 0.00 51 1016.5
20260503175408 51 284 8.0 11.0 0.00 0.00 0.00 52 1016.5
20260503174903 51 238 4.0 7.0 0.00 0.00 0.00 51 1016.3
20260503174402 52 313 1.0 1.0 0.00 0.00 0.00 50 1016.4
20260503173856 51 160 3.0 3.0 0.00 0.00 0.00 52 1016.5
20260503173353 50 304 2.0 4.0 0.00 0.00 0.00 52 1016.5
20260503172850 50 251 7.0 8.0 0.00 0.00 0.00 53 1016.5
20260503172347 50 276 9.0 10.0 0.00 0.00 0.00 52 1016.4
20260503171843 50 243 2.0 4.0 0.00 0.00 0.00 52 1016.4
20260503171340 50 256 5.0 6.0 0.00 0.00 0.00 53 1016.2
20260503170838 52 249 10.0 11.0 0.00 0.00 0.00 52 1016.3
20260503170334 50 330 6.0 8.0 0.00 0.00 0.00 52 1016.1
20260503150726 47 250 2.0 3.0 0.00 0.00 0.00 55 1015.0
20260503150222 47 255 6.0 8.0 0.00 0.00 0.00 57 1014.7
20260503140147 46 258 0.0 1.0 0.00 0.00 0.00 58 1013.7
20260503131116 43 267 1.0 2.0 0.00 0.00 0.00 62 1013.1
20260503130614 43 243 2.0 3.0 0.00 0.00 0.00 62 1012.9
20260503130112 43 237 2.0 2.0 0.00 0.00 0.00 63 1012.9
20260503110504 46 351 3.0 3.0 0.00 0.00 0.00 54 1011.2
20260503090355 48 276 0.0 0.0 0.00 0.00 0.00 50 1010.1
20260503081323 50 249 0.0 1.0 0.00 0.00 0.00 48 1009.2
20260503080820 50 270 4.0 6.0 0.00 0.00 0.00 49 1009.2
20260503080317 51 293 1.0 1.0 0.00 0.00 0.00 49 1009.0
20260503072753 51 265 1.0 1.0 0.00 0.00 0.00 49 1008.8
20260503072250 52 318 2.0 2.0 0.00 0.00 0.00 48 1008.7
20260503071746 53 265 2.0 3.0 0.00 0.00 0.00 47 1008.7
20260503071243 53 258 6.0 7.0 0.00 0.00 0.00 45 1008.8
20260503070739 53 272 0.0 1.0 0.00 0.00 0.00 47 1008.6
20260503070237 53 257 6.0 7.0 0.00 0.00 0.00 45 1008.6
20260503060202 57 281 4.0 4.0 0.00 0.00 0.00 42 1008.3
20260503054649 57 261 4.0 6.0 0.00 0.00 0.00 43 1008.5
20260503054147 57 249 5.0 7.0 0.00 0.00 0.00 43 1008.4
20260503053645 56 264 1.0 1.0 0.00 0.00 0.00 44 1008.4
20260503053143 57 299 4.0 6.0 0.00 0.00 0.00 43 1008.4
20260503052639 57 291 2.0 3.0 0.00 0.00 0.00 46 1008.4
20260503052135 57 255 7.0 9.0 0.00 0.00 0.00 44 1008.3
20260503051631 56 255 2.0 3.0 0.00 0.00 0.00 46 1008.4
20260503051129 55 251 0.0 1.0 0.00 0.00 0.00 47 1008.4
20260503050625 55 261 3.0 4.0 0.00 0.00 0.00 47 1008.5
20260503050122 54 267 0.0 0.0 0.00 0.00 0.00 49 1008.7
20260503045620 55 281 0.0 0.0 0.00 0.00 0.00 48 1008.4
20260503045117 55 266 0.0 0.0 0.00 0.00 0.00 49 1008.4
20260503044613 57 255 0.0 0.0 0.00 0.00 0.00 46 1008.3
20260503044111 57 264 0.0 1.0 0.00 0.00 0.00 46 1008.4
20260503043607 57 253 2.0 2.0 0.00 0.00 0.00 45 1008.4
20260503043104 58 282 1.0 1.0 0.00 0.00 0.00 45 1008.2
20260503042600 58 259 4.0 6.0 0.00 0.00 0.00 45 1008.1
20260503042057 58 283 4.0 4.0 0.00 0.00 0.00 44 1008.1
20260503041553 58 244 1.0 2.0 0.00 0.00 0.00 46 1008.1
20260503041051 58 239 2.0 2.0 0.00 0.00 0.00 46 1007.6
20260503040548 58 320 2.0 2.0 0.00 0.00 0.00 45 1007.7
20260503040045 58 277 3.0 4.0 0.00 0.00 0.00 45 1007.7